Location: Unspecified
(0.0000°N, 0.0000°E)
Time: 18:07:03
(UTC+00:00)

Courier 1B Rocket - Pass Details

Date: 05 October 2020
Orbit: 921 x 1202 km, 28.2° (Epoch: 27 October)

Event Time Altitude Azimuth Distance (km) Brightness Sun altitude
Rises 21:54:37 0° 224° (SW) 4,095 8.6 -61.2°
Enters shadow 21:54:58 - 224° (SW) 3,985 8.5 -61.3°
Reaches altitude 10° 21:57:47 10° 216° (SW) 3,132 - -62.0°
Maximum altitude 22:04:47 35° 152° (SSE) 1,813 - -63.7°
Drops below altitude 10° 22:11:34 10° 89° (E) 3,044 - -65.3°
Sets 22:14:35 0° 80° (E) 3,967 - -66.1°
